Regional Weather Roundup
Issued by NWS Albany, NY

Home | Current Version | Previous Version | Text Only | Print | Product List | Glossary On
Versions: 1 2 3 4 5 6 7 8 9 10 11 12 13 14 15 16 17 18 19 20 21 22 23 24 25 26 27 28
000
ASUS41 KALY 252110
RWRALY

NEW YORK STATE HOURLY WEATHER ROUNDUP
NATIONAL WEATHER SERVICE ALBANY NY
500 PM EDT THU AUG 25 2016

NOTE: "FAIR" INDICATES FEW OR NO CLOUDS BELOW 12,000 FEET WITH NO
SIGNIFICANT WEATHER AND/OR NO OBSTRUCTIONS TO VISIBILITY.

NYZ032-033-038>043-046>054-057>066-NYZ062>081-082-084-252200-
EAST


CITY           SKY/WX    TMP DP  RH WIND       PRES   REMARKS
ALBANY         CLOUDY    76  72  87 SE3       29.96F
GLENS FALLS    CLOUDY    75  69  81 S8        29.96S
POUGHKEEPSIE   CLOUDY    78  69  73 CALM      29.98F
NEWBURGH       CLOUDY    79  72  78 SW7       30.02S
MONTGOMERY     PTSUNNY   83  72  69 SW12      29.99F
WHITE PLAINS   CLOUDY    79  65  62 S7        30.02S
ISLIP          PTSUNNY   78  66  66 S16       30.03F
NEW YORK CITY  CLOUDY    82  67  60 S16G26    30.00F
CENTRAL PARK     N/A     82  68  61 MISG        N/A
$$

NYZ005>009-017-018-044>046-055-056-252200-
CENTRAL


CITY           SKY/WX    TMP DP  RH WIND       PRES   REMARKS
FULTON         MOSUNNY   82  72  71 W3        29.92F
SYRACUSE       PTSUNNY   82  71  69 SW6       29.92S
ROME           PTSUNNY   80  73  79 SE3       29.95S
ELMIRA         PTSUNNY   86  70  58 SW13      29.96F HX  90
BINGHAMTON     MOSUNNY   76  70  82 SW6       30.03R
MONTICELLO     CLOUDY    75  70  83 SW9       30.05F
$$

NYZ026>034-041>043-087-252200-
NORTH


CITY           SKY/WX    TMP DP  RH WIND       PRES   REMARKS
WATERTOWN      CLOUDY    79  71  76 SW8       29.91S
FORT DRUM      NOT AVBL
MASSENA        CLOUDY    82  70  66 SW15G22   29.86F
SARANAC LAKE   PTSUNNY   75  65  70 SW10      29.96R
PLATTSBURGH    MOSUNNY   83  70  64 S3        29.87S
$$

NYZ001>004-010>016-019>021-085-252200-
WEST


CITY           SKY/WX    TMP DP  RH WIND       PRES   REMARKS
NIAGARA FALLS  CLOUDY    84  69  60 SW14      29.93R
BUFFALO        CLOUDY    82  69  64 W16G23    29.94S
DUNKIRK        CLOUDY    81  70  69 W5        29.95F
JAMESTOWN      MOSUNNY   81  68  65 SW12      30.01S
WELLSVILLE     MOSUNNY   83  68  60 SW9       30.05F
ROCHESTER      PTSUNNY   86  70  58 W13       29.93S HX  90
PENN YAN       MOSUNNY   86  68  54 W8        29.96F
$$

             KEY
       WCI = WIND CHILL INDEX
       VSB = VISIBILITY
       HX  = HEAT INDEX
$$




USA.gov is the U.S. government's official web portal to all federal, state and local government web resources and services.